Flag for Russia Weather past 2 weeks in Yuzhno-Sakhalinsk, Russia

Now
66 °F

Fog.


Feels Like: 66 °F
Forecast: 65 / 80 °F
Wind: 6 mph from South

Location: Yuzhno Airport-Sakhalinsk

Current Time: Jul 29, 2015 at 4:52:56 AM

Latest Report: Jul 29, 2015 at 4:00 AM


Visibility: 1 mi

Pressure: 29.68 "Hg

Humidity: 100%

Dew point: 66 °F

Location of Yuzhno-SakhalinskLocation

Historic Weather in Yuzhno-Sakhalinsk — Graph

°F

Yuzhno-Sakhalinsk temperature yesterday

Maximum temperature yesterday: 72 °F (at 11:30 AM)
Minimum temperature yesterday: 59 °F (at 12:00 AM)
Average temperature yesterday: 67 °F

Past Weeks' High & Low Weather Summary

 TemperatureHumidityPressure
High82 °F (Jul 19, 12:30 PM)100% (Jul 14, 3:00 AM)29.89 "Hg (Jul 14, 3:00 AM)
Low46 °F (Jul 16, 2:00 AM)42% (Jul 17, 4:30 PM)29.42 "Hg (Jul 14, 4:00 PM)
Average63 °F89%29.75 "Hg
* Reported Jul 14 3:00 AM — Jul 29 3:00 AM, Yuzhno-Sakhalinsk, Weather by CustomWeather, © 2015

Note: Actual official high and low records may vary slightly from our data, if they occured in-between our weather recording intervals... More about our weather records

Advertising

Yuzhno-Sakhalinsk weather history for previous 24 hours

 ConditionsComfort  
Time TempWeatherWind HumidityBarometerVisibility
3:00 AM
Wed, Jul 29
66 °FFog.6 mph100%29.68 "Hg3 mi
2:00 AM66 °FFog.3 mph100%29.68 "Hg3 mi
1:30 AM66 °FFog.3 mph100%29.71 "Hg3 mi
1:00 AM68 °FFog.3 mph100%29.71 "Hg3 mi
12:30 AM68 °FFog.6 mph100%29.71 "Hg3 mi
12:00 AM68 °FFog.6 mph100%29.71 "Hg3 mi
11:30 PM
Tue, Jul 28
68 °FFog.3 mph100%29.71 "Hg2 mi
11:00 PM68 °FFog.3 mph100%29.71 "Hg2 mi
10:30 PM66 °FFog.3 mph100%29.71 "Hg2 mi
10:00 PM66 °FFog.3 mph100%29.71 "Hg1 mi
9:30 PM66 °FFog.3 mph100%29.71 "Hg1 mi
9:00 PM66 °FFog.3 mph100%29.71 "Hg1 mi
8:30 PM66 °FFog.3 mph100%29.71 "Hg1 mi
8:00 PM68 °FFog.6 mph100%29.68 "Hg1 mi
7:30 PM68 °FFog.6 mph100%29.68 "Hg1 mi
7:00 PM68 °FFog.3 mph100%29.68 "Hg1 mi
6:30 PM68 °FFog.6 mph100%29.68 "Hg1 mi
6:00 PM68 °FFog.8 mph100%29.68 "Hg1 mi
5:30 PM68 °FFog.6 mph100%29.68 "Hg1 mi
5:00 PM68 °FFog.8 mph100%29.68 "Hg2 mi
4:30 PM70 °FFog.8 mph94%29.68 "Hg3 mi
4:00 PM70 °FFog.6 mph100%29.68 "Hg3 mi
3:30 PM70 °FFog.3 mph100%29.68 "Hg2 mi
3:00 PM70 °FFog.3 mph100%29.68 "Hg2 mi
2:30 PM70 °FFog.3 mph100%29.68 "Hg2 mi
1:30 PM70 °FFog.3 mph100%29.68 "Hg2 mi
1:00 PM68 °FFog.8 mph100%29.71 "Hg3 mi
12:30 PM70 °FFog.8 mph100%29.68 "Hg3 mi
12:00 PM72 °FFog.6 mph100%29.68 "Hg2 mi
11:30 AM72 °FFog.1 mph100%29.68 "Hg2 mi
11:00 AM70 °FFog.6 mph100%29.71 "Hg2 mi
10:30 AM68 °FFog.1 mph100%29.71 "Hg1 mi
10:00 AM68 °FFog.1 mph100%29.71 "Hg1 mi
9:30 AM68 °FFog.3 mph100%29.71 "Hg1 mi
9:00 AM66 °FFog.1 mph100%29.71 "Hg1 mi
8:30 AM66 °FFog.No wind100%29.71 "Hg1 mi
8:00 AM66 °FFog.3 mph100%29.71 "Hg1 mi
7:30 AM64 °FFog.No wind100%29.71 "Hg1 mi
7:00 AM64 °FFog.1 mph100%29.68 "Hg1 mi
6:30 AM63 °FFog.No wind100%29.71 "Hg1 mi
6:00 AM63 °FFog.No wind100%29.68 "Hg1 mi
5:00 AM61 °FDrizzle. Fog.No wind100%29.68 "Hg1 mi
4:00 AM61 °FDrizzle. Fog.No wind100%29.68 "Hg1 mi
Weather by CustomWeather, © 2015

See weather overviewHow to use our weather pages